ECMWFNIL_prec_cthk_000.txt.gz
RH
23 22 22 22 22 21 22 21 20 19 19 20 19 19 17 16 16 15 15 15 15 15 14 14 14 14 14 14 14 14 13 13 13 13 13 13 12 13 13 14 15 15
28 26 25 24 24 25 24 24 23 22 21 21 21 20 19 18 17 16 16 16 16 15 15 15 15 15 15 15 14 14 14 13 13 13 13 13 13 13 13 13 14 14
32 32 30 28 27 28 26 24 24 25 26 25 24 23 21 20 19 18 17 17 17 17 16 16 16 16 16 16 16 16 15 15 14 14 14 13 13 13 14 14 14 14
36 36 35 34 33 32 31 29 26 27 28 29 28 27 24 22 21 19 19 19 18 18 18 18 17 16 17 17 17 17 16 16 16 15 15 14 14 14 14 14 14 14
42 40 39 39 39 39 37 35 31 30 30 30 31 31 28 26 23 21 20 20 20 20 20 19 17 17 17 17 17 17 17 17 17 16 16 16 15 15 14 14 14 14
50 46 42 40 40 41 42 39 35 34 33 32 33 32 31 29 27 24 22 20 21 21 21 20 18 17 17 17 17 17 17 17 17 16 16 16 15 15 14 14 14 14
54 50 46 43 41 41 43 42 39 37 37 36 36 35 34 32 30 28 25 22 20 21 21 21 19 18 18 18 17 17 17 16 16 16 16 16 15 15 14 14 13 13
59 54 50 48 45 43 44 44 42 40 39 38 37 37 36 34 34 33 32 28 23 21 21 21 20 18 18 18 18 18 17 17 16 16 15 15 15 14 14 13 13 13
65 61 56 53 49 47 47 46 43 42 42 40 39 39 38 36 35 35 36 35 31 27 23 22 20 19 19 19 18 19 18 17 17 16 16 16 15 14 13 13 13 13
67 68 66 60 54 51 50 49 46 43 44 45 43 42 41 39 38 38 38 37 35 31 28 25 21 19 19 19 19 19 18 17 17 16 16 16 14 13 13 12 12 12
66 71 71 66 62 60 59 57 54 49 47 49 48 47 46 44 42 41 41 40 37 34 32 29 25 21 20 20 18 18 18 17 17 16 15 14 13 12 12 12 12 11
59 61 63 62 60 62 63 62 60 57 54 55 54 51 50 51 51 49 47 46 43 39 36 33 29 25 23 21 20 18 18 19 18 16 15 14 13 13 12 11 11 11
57 54 55 56 55 56 61 64 66 65 62 60 58 56 56 58 59 57 55 53 49 45 42 38 33 30 28 26 24 22 20 20 18 16 15 15 14 13 11 11 10 10
58 56 54 55 56 57 61 64 66 67 63 58 57 59 62 65 67 66 64 62 59 55 49 43 37 34 33 32 29 26 23 20 19 18 17 15 14 12 11 11 11 10
49 51 53 56 57 57 59 58 58 63 65 64 63 63 64 69 73 73 68 65 66 65 59 50 44 39 38 36 34 30 26 23 21 20 18 15 14 13 13 13 13 13
40 41 47 52 54 56 58 57 57 62 68 70 71 70 68 71 73 73 70 66 66 69 67 60 53 47 42 39 37 36 33 29 24 20 17 16 16 15 15 15 15 15
36 39 43 47 51 54 56 55 56 62 69 73 74 74 76 77 75 75 75 70 66 70 73 70 61 52 44 40 41 42 37 30 24 20 18 18 17 17 16 15 15 15
30 37 43 47 50 51 52 53 55 61 69 71 72 75 80 83 81 79 79 77 72 72 75 75 68 56 47 44 46 44 37 30 26 23 20 18 18 17 16 15 15 14
31 35 41 46 49 49 51 57 64 70 75 75 74 78 83 85 84 83 85 85 82 79 78 74 69 61 54 49 46 41 35 30 28 26 23 21 19 17 16 15 14 15
33 37 41 45 48 48 49 54 60 64 67 70 73 76 81 84 83 84 89 90 88 87 82 73 66 62 58 51 44 39 35 31 29 29 28 25 22 18 16 15 15 16
29 35 42 46 47 47 49 51 52 54 59 68 76 79 81 82 79 79 85 88 88 88 83 75 67 60 54 50 44 39 36 33 31 30 30 29 26 20 17 16 17 18
25 29 37 43 46 46 47 48 49 52 59 69 80 84 82 79 77 76 79 82 84 84 82 80 73 59 50 49 45 38 35 35 33 31 32 32 29 24 20 19 19 20
24 28 35 41 43 45 45 45 47 52 58 65 71 73 71 72 75 76 77 79 81 81 80 78 71 60 54 50 43 37 37 38 36 33 34 35 32 27 23 21 21 22
24 29 37 40 42 44 43 41 44 54 65 71 71 69 69 73 75 76 78 80 78 77 78 76 68 60 56 50 43 40 41 41 38 36 37 36 34 30 26 24 24 25
26 31 37 40 41 43 42 41 46 56 65 67 66 66 69 72 71 72 76 76 72 70 73 72 64 56 51 47 44 43 42 41 39 37 38 38 35 32 28 27 27 28
29 33 38 41 42 45 45 45 46 50 52 53 56 63 67 65 62 63 67 67 64 67 70 66 58 52 48 46 44 43 43 42 40 39 39 38 36 32 29 28 28 29

ECMWFNIL_prec_cthk_003.txt.gz
RH
22 20 21 21 21 21 21 22 23 24 25 24 22 20 18 17 17 16 16 15 15 14 14 13 12 13 13 13 13 13 13 13 13 13 13 13 13 13 13 13 13 13
31 27 24 24 24 25 26 26 26 26 27 27 27 25 22 20 18 17 17 17 16 16 15 14 13 13 13 13 13 13 13 13 13 13 13 12 12 12 12 12 12 13
45 42 37 31 28 28 28 30 30 29 30 30 31 31 28 25 22 19 18 17 17 17 17 16 14 14 14 15 15 14 14 14 14 15 14 14 13 13 13 13 13 12
51 52 47 40 35 32 30 31 33 33 33 33 34 34 33 31 27 24 21 19 19 18 18 18 17 16 16 16 16 16 16 16 16 16 15 15 14 14 14 13 13 12
57 58 54 46 40 36 34 34 35 36 37 36 36 37 36 35 32 29 26 23 21 20 19 19 19 19 18 17 17 17 17 17 17 17 16 15 15 15 14 13 13 12
61 63 61 55 47 41 39 39 39 39 40 39 39 40 40 39 37 34 31 29 27 25 23 22 21 20 19 19 18 18 18 18 18 18 17 17 16 15 15 14 13 13
58 60 58 56 52 47 43 42 42 42 42 41 40 42 43 43 43 40 38 35 33 31 30 28 26 24 22 20 19 18 18 18 19 19 18 17 17 16 16 15 14 13
56 57 54 53 54 52 48 45 43 45 46 44 41 42 43 44 44 44 43 42 39 37 36 34 33 32 29 26 23 21 19 19 19 19 19 18 17 16 16 15 14 14
53 54 54 54 54 54 53 50 50 50 50 48 45 45 46 47 47 45 46 47 46 45 43 40 38 36 35 33 30 27 24 22 21 20 19 19 18 17 16 15 15 14
58 57 57 55 53 52 52 55 56 55 54 51 49 47 48 50 51 50 50 51 51 50 50 49 46 42 40 39 36 34 30 27 25 23 21 20 18 18 17 15 15 14
66 64 62 58 54 52 53 56 59 60 59 56 52 50 51 52 54 53 54 55 54 51 51 54 53 50 47 46 42 39 35 31 29 27 25 23 20 18 17 16 14 12
65 64 65 63 59 56 56 57 58 60 61 57 53 51 50 52 54 54 56 58 58 55 53 57 61 59 55 53 51 46 40 37 33 30 28 26 23 21 18 15 13 12
58 61 67 68 66 63 63 62 61 61 61 60 58 53 49 49 51 54 56 56 55 54 53 56 63 66 63 58 56 53 47 42 38 34 31 29 27 24 19 15 13 13
51 56 63 66 65 64 65 63 62 61 60 59 58 54 53 53 54 55 54 52 51 52 53 56 61 67 68 63 60 60 57 51 44 38 33 32 30 25 20 17 15 14
43 45 48 51 53 55 55 56 56 55 54 53 51 50 52 55 58 58 55 51 51 55 59 61 62 64 66 65 62 62 62 60 54 46 39 33 31 28 23 20 18 16
39 36 36 38 42 46 46 47 49 52 53 51 49 50 53 55 57 60 62 61 61 65 70 71 69 67 65 63 61 60 64 64 60 55 47 36 30 29 27 23 20 18
39 35 32 32 37 43 45 44 44 47 50 50 51 57 62 63 63 65 70 70 68 70 73 73 72 72 71 69 65 65 70 69 62 58 52 40 32 30 28 27 24 21
36 34 29 27 32 39 44 45 44 43 44 48 51 57 63 65 64 66 72 73 69 68 69 70 71 71 72 74 72 70 74 72 64 61 57 45 37 32 30 29 29 25
28 28 26 25 27 32 39 45 46 43 42 44 47 51 55 57 58 63 70 74 73 71 71 73 71 66 67 71 70 69 73 72 66 63 60 51 41 34 32 33 32 30
24 24 23 23 24 26 32 39 42 42 42 43 45 46 47 49 51 52 55 58 58 59 62 66 66 62 62 67 69 68 69 71 68 62 57 53 46 39 39 38 36 33
22 22 22 21 22 23 28 36 39 40 41 43 44 44 43 45 47 47 45 46 48 53 60 65 66 65 66 68 69 67 65 67 68 61 55 53 47 44 46 46 41 36
19 20 20 20 21 23 28 35 41 42 41 41 43 44 44 43 42 42 41 44 52 58 62 63 64 66 67 65 64 64 63 63 63 59 56 53 48 45 47 48 44 40
19 20 20 20 21 23 27 35 41 43 43 43 42 42 43 41 42 44 44 48 56 58 55 56 59 60 60 58 56 58 59 56 55 57 58 55 51 48 45 42 40 39
20 21 22 23 22 23 26 34 41 43 43 42 40 41 47 49 50 56 59 59 61 60 57 59 60 58 56 55 54 53 53 53 56 59 56 52 49 46 41 37 34 33
20 21 23 25 25 24 29 37 42 43 43 43 39 42 52 56 54 58 65 69 68 65 63 62 59 55 52 52 51 51 51 53 56 55 51 50 48 45 40 36 34 31
21 21 24 26 26 27 32 40 44 42 41 42 42 46 55 56 53 55 61 65 64 60 55 53 52 50 48 48 50 51 50 49 48 44 42 47 48 44 40 37 34 32

ECMWFNIL_prec_cthk_009.txt.gz
RH
39 37 34 31 30 29 27 26 28 27 27 29 29 30 27 21 17 16 15 14 14 13 13 12 12 12 12 12 14 16 13 12 13 13 13 13 13 13 13 13 13 12
40 40 40 38 37 36 33 31 30 29 29 31 34 36 34 27 22 21 18 17 15 15 15 14 14 13 14 14 13 14 14 13 14 13 13 13 13 13 12 12 12 11
43 44 45 46 45 43 42 39 36 34 34 36 39 41 39 32 30 29 25 23 20 18 17 16 16 15 15 15 15 15 15 15 15 15 14 15 14 14 13 12 13 11
44 47 51 55 54 52 52 50 47 43 40 41 43 44 41 35 34 35 32 30 28 25 24 21 20 20 18 17 17 16 16 16 16 16 16 16 15 15 15 14 13 13
45 49 56 61 61 61 61 58 56 53 49 46 45 46 44 38 36 36 36 36 34 33 32 31 30 29 28 26 24 22 20 18 17 17 17 16 16 16 16 16 16 15
50 54 62 66 64 64 66 64 61 58 56 53 49 49 48 43 40 39 38 38 38 37 36 36 37 37 36 35 34 32 30 29 26 23 21 20 17 16 16 16 17 17
56 57 63 66 66 66 67 65 62 60 59 56 53 53 51 46 44 44 43 41 40 40 38 37 39 39 40 40 40 39 38 38 37 35 35 32 27 23 21 19 17 18
60 59 63 63 64 69 70 67 65 63 62 59 54 53 51 46 44 45 46 46 45 43 41 40 39 39 39 40 41 41 39 39 39 39 43 43 39 35 33 29 24 22
62 63 68 66 62 63 68 70 70 67 65 62 59 56 53 50 49 48 48 49 49 48 46 44 42 41 39 39 41 43 43 42 41 39 41 43 43 43 44 41 35 31
70 69 73 75 69 64 65 69 71 69 67 65 63 62 58 56 56 55 53 53 53 52 50 49 47 45 41 39 40 41 42 45 46 45 43 44 45 45 46 45 42 39
75 76 77 77 75 73 71 71 71 71 71 71 70 68 65 64 64 61 58 56 55 52 50 49 49 49 48 45 43 43 43 46 47 48 48 49 51 50 48 46 44 43
75 80 82 79 80 83 80 75 73 73 75 77 78 75 71 68 67 66 64 60 56 53 51 47 46 49 50 48 47 45 45 47 48 48 49 50 51 51 50 48 46 45
70 75 76 74 76 78 75 72 74 76 78 79 80 78 74 68 65 67 69 65 60 56 53 49 47 46 47 48 49 50 49 48 49 50 49 49 47 48 48 47 45 44
63 66 69 69 68 67 67 69 74 79 80 79 78 78 76 72 67 66 68 68 63 59 56 54 51 48 48 50 54 58 57 55 54 53 53 54 50 47 47 47 44 42
61 62 65 67 66 65 65 66 70 76 78 78 78 78 77 75 70 68 69 68 64 61 59 57 56 52 50 51 55 60 64 65 64 59 57 59 58 52 50 49 46 42
51 51 53 56 60 64 65 65 67 70 73 75 76 76 76 76 73 69 68 66 65 63 62 61 59 55 51 52 56 61 64 64 63 60 57 59 60 57 53 50 47 43
43 43 43 45 50 55 59 62 64 66 70 72 70 69 71 72 72 70 69 68 68 66 65 64 62 59 56 54 56 61 64 62 60 58 60 62 60 56 53 48 44 41
44 43 42 41 42 44 47 52 56 58 60 62 62 63 63 63 65 68 70 70 70 69 69 67 63 62 61 59 59 61 62 63 61 58 62 64 58 51 49 46 42 40
45 45 45 45 46 49 50 52 54 54 54 56 57 59 58 57 57 60 61 62 64 66 67 65 63 63 63 62 64 61 57 57 56 53 55 56 50 47 46 43 38 36
43 43 43 46 48 50 50 51 53 53 54 55 54 53 53 54 53 53 53 53 53 55 56 55 55 56 56 57 58 56 55 55 53 48 47 48 47 46 44 39 35 33
39 39 37 38 39 39 39 41 44 44 45 45 44 44 45 46 48 49 50 50 50 51 51 49 47 48 49 49 48 48 50 53 53 50 48 48 47 44 39 35 33 31
34 33 32 31 30 30 30 32 33 33 35 37 38 38 38 38 40 41 43 46 48 49 48 46 44 46 45 43 42 43 44 45 48 51 51 51 49 44 39 38 37 35
33 32 31 30 30 29 29 30 30 30 33 35 35 35 35 35 36 37 40 44 46 48 48 45 45 47 44 40 40 41 41 43 46 50 53 52 49 46 46 47 45 43
34 32 31 30 30 30 30 31 31 31 33 34 34 35 35 35 37 39 42 45 48 51 50 48 48 48 44 40 40 40 42 47 50 51 52 51 48 49 54 55 50 47
36 35 34 33 33 32 32 32 32 32 34 35 35 35 35 36 37 39 43 46 48 49 50 49 48 47 44 43 43 42 45 49 50 51 53 52 51 55 58 56 52 49
39 38 39 39 39 38 37 36 35 34 35 36 36 35 35 36 38 40 45 50 50 49 49 49 47 45 46 47 45 44 46 47 47 51 55 56 57 59 57 52 51 51

ECMWFNIL_prec_cthk_012.txt.gz
RH
39 38 33 28 25 25 23 23 26 26 25 23 20 16 15 15 14 13 13 12 12 12 11 11 11 11 11 12 12 11 12 12 11 11 12 11 11 11 11 11 11 11
39 38 35 29 29 31 30 30 33 30 29 30 29 25 22 20 19 18 16 15 14 13 13 12 12 12 12 12 13 13 13 13 13 12 13 13 13 12 12 11 11 11
41 39 37 31 32 39 39 37 38 35 34 35 35 33 29 27 27 26 24 23 20 19 18 17 16 15 14 14 13 14 13 13 13 13 13 13 13 13 12 12 12 12
46 43 42 37 36 42 45 45 44 41 39 38 39 39 36 32 32 32 31 31 29 28 27 25 24 23 22 22 21 20 19 18 18 16 16 15 15 15 14 14 14 14
53 49 48 46 44 45 48 52 52 49 47 45 46 46 42 38 37 35 34 34 33 34 34 33 33 31 31 30 30 29 28 27 26 24 23 22 21 20 19 18 17 17
58 57 56 54 52 50 50 55 59 59 57 55 54 52 49 46 43 40 39 38 37 36 35 35 35 34 35 34 33 33 33 32 32 31 30 29 28 27 26 25 24 23
62 64 63 59 58 55 53 57 63 63 62 61 58 56 55 53 50 47 44 44 43 41 39 37 35 34 34 35 35 35 35 35 36 36 36 35 34 33 33 31 31 31
63 65 66 65 63 60 57 61 66 67 66 65 63 61 59 57 55 53 50 48 49 48 46 43 39 37 35 35 35 35 35 36 36 37 38 38 37 36 36 36 35 35
64 66 68 70 69 65 61 62 67 70 70 67 67 66 64 63 62 59 56 52 51 51 51 49 46 43 40 37 36 35 35 34 34 35 37 38 39 37 37 39 39 39
70 72 71 73 75 70 65 64 68 73 73 71 70 70 70 69 66 64 61 56 55 54 53 53 53 50 46 43 40 39 38 37 37 37 38 40 40 40 40 40 40 41
76 78 74 75 78 75 70 67 69 73 76 76 74 73 74 74 70 67 64 61 59 58 56 56 56 54 50 46 44 43 42 42 42 42 43 44 44 45 44 43 42 41
75 79 81 81 81 79 76 73 73 76 79 80 78 77 79 79 75 72 70 66 64 63 62 62 59 57 53 48 46 45 44 44 44 44 46 48 48 48 48 47 47 45
67 71 80 83 80 78 76 73 73 75 76 78 79 79 80 80 79 77 75 73 71 69 68 66 64 62 59 55 51 48 47 48 47 46 47 49 51 52 51 50 49 48
59 58 64 71 73 74 73 71 70 70 70 73 76 76 77 78 81 84 83 81 80 77 73 70 66 65 64 62 60 57 55 55 54 53 52 52 55 56 54 51 50 49
52 50 51 55 58 64 68 68 67 65 66 71 72 72 72 73 77 82 82 79 77 76 75 74 73 72 71 71 69 66 61 58 58 59 58 57 57 56 53 52 53 51
49 50 51 50 51 55 58 58 57 57 61 67 69 69 70 72 75 78 77 75 72 69 69 72 76 77 76 76 78 74 66 60 62 63 62 59 58 57 56 56 57 54
45 47 49 49 49 51 52 51 51 51 55 60 64 66 66 67 71 73 73 72 71 69 66 65 69 70 69 71 75 72 66 63 67 68 64 60 58 59 58 55 54 52
42 43 43 43 44 46 47 48 49 50 51 54 57 59 60 60 61 63 62 62 62 63 63 61 61 62 64 67 70 69 66 64 66 68 65 61 59 58 57 54 51 49
40 40 41 41 42 44 46 47 48 48 47 48 49 51 52 52 53 52 51 52 53 52 52 51 51 52 55 59 64 66 65 63 64 64 60 58 57 54 54 54 52 50
38 39 39 40 40 41 42 44 44 45 48 49 47 46 45 44 45 46 45 46 48 49 46 45 46 48 48 50 53 56 58 61 65 61 53 50 50 47 48 51 51 49
37 37 38 37 37 37 39 39 40 43 49 51 50 47 45 42 41 42 42 42 44 47 45 42 46 49 50 50 51 53 58 64 65 57 47 44 42 40 41 44 45 46
36 36 36 35 35 34 34 35 35 38 41 43 43 43 41 39 38 37 38 38 39 42 42 40 42 45 45 48 51 54 59 63 60 51 43 40 39 38 38 39 40 43
38 38 37 36 35 34 33 32 31 32 32 32 34 35 36 37 36 34 35 35 35 38 40 40 42 44 45 48 50 51 52 53 52 48 43 40 38 38 40 42 44 46
41 41 40 38 37 35 33 32 30 29 28 29 30 33 34 35 35 33 33 34 34 35 37 39 41 43 44 47 50 51 51 51 50 48 43 40 40 42 45 48 49 51
43 44 44 42 40 38 35 34 31 29 29 30 32 34 35 35 35 35 34 34 33 34 36 39 42 43 44 46 49 53 54 53 50 45 41 42 45 47 49 51 52 52
41 42 43 43 43 43 42 40 36 33 32 33 35 37 39 39 37 36 35 34 34 35 38 40 43 47 49 50 52 52 52 51 48 43 40 43 47 49 50 52 53 52

ECMWFNIL_prec_cthk_015.txt.gz
RH
50 34 30 30 27 25 24 21 17 18 18 17 16 15 14 14 13 13 12 12 12 12 12 11 11 11 11 11 12 11 12 11 11 11 11 11 11 10 10 10 10 9
60 42 33 32 29 25 26 25 20 21 22 21 21 20 20 19 18 17 16 15 14 14 14 14 14 14 13 13 13 13 12 12 12 13 12 12 12 11 11 11 10 10
65 49 38 36 32 28 29 30 26 25 25 24 25 25 25 24 24 23 22 21 21 21 20 20 20 20 19 18 18 18 18 18 18 17 17 17 16 15 14 13 13 12
68 55 45 41 39 34 33 37 35 31 30 29 27 28 29 28 28 28 29 28 28 29 29 28 29 28 29 29 28 28 28 27 27 26 25 25 24 23 23 21 20 19
71 64 56 49 46 41 38 43 43 40 37 34 31 31 32 32 32 33 34 34 34 35 35 35 36 36 36 36 36 36 35 34 33 33 32 31 31 30 30 29 29 28
71 68 65 58 54 50 45 47 50 48 46 43 38 36 38 39 38 37 37 38 38 39 39 39 39 38 39 38 38 38 37 37 37 36 35 34 33 33 33 33 33 33
74 75 75 69 62 58 52 52 54 55 53 51 47 46 47 47 46 44 43 43 43 43 43 42 42 41 39 39 38 38 37 37 38 38 38 37 37 36 36 35 35 35
76 80 84 81 74 68 60 55 54 56 56 55 54 54 56 56 54 54 53 53 52 51 49 48 47 45 43 41 40 39 38 37 36 36 37 37 38 39 39 37 37 37
72 75 81 86 84 77 70 61 55 55 56 56 56 58 62 63 62 61 61 59 59 59 58 56 55 53 51 49 46 43 41 40 39 38 39 39 39 41 42 41 39 39
72 72 77 85 85 81 75 69 64 62 62 61 57 57 61 65 67 67 67 66 65 64 64 63 62 60 59 59 57 53 49 47 45 43 42 42 42 43 46 47 46 45
76 76 77 80 83 82 79 77 74 71 68 68 66 64 62 64 68 70 70 69 71 71 69 66 64 63 62 62 62 60 57 54 50 47 45 44 44 45 48 50 51 51
69 72 73 73 74 75 78 79 77 75 72 71 72 72 68 66 67 69 70 71 74 75 74 71 68 66 65 64 63 61 58 55 53 51 49 47 47 47 49 51 52 52
56 59 64 66 68 71 76 78 76 74 72 70 73 75 72 69 69 68 68 72 75 77 79 78 72 69 69 69 68 65 61 57 57 57 55 52 50 49 50 51 52 53
49 50 54 59 63 68 73 75 74 73 68 66 71 75 72 69 67 64 65 68 70 72 77 80 76 74 74 74 73 72 69 66 65 64 63 61 58 55 55 56 57 56
47 51 55 58 61 62 64 66 68 66 61 57 60 64 66 66 66 66 65 65 64 65 69 74 75 75 75 74 73 73 72 71 70 68 69 71 67 60 57 60 62 59
44 48 51 54 56 57 59 59 58 57 55 53 53 55 59 61 62 62 60 57 60 63 67 70 71 70 71 72 72 71 70 71 70 68 70 73 71 64 61 64 64 59
44 46 45 46 50 53 55 56 56 56 56 57 56 56 56 55 54 55 54 53 54 57 62 66 67 66 67 69 69 68 68 67 66 66 67 69 70 69 68 69 67 61
44 45 43 44 47 49 50 52 55 55 56 55 54 53 52 51 50 50 52 51 51 51 53 56 60 62 61 60 59 60 61 60 59 59 59 59 64 69 68 66 65 61
39 40 40 41 42 43 45 48 50 51 51 50 49 50 50 49 48 48 46 45 43 42 42 43 47 51 51 50 49 48 48 48 47 47 47 49 56 63 62 60 59 57
35 36 37 39 40 39 39 39 41 43 45 46 47 48 49 49 48 47 44 41 38 37 36 36 38 40 42 44 45 43 42 41 42 45 49 53 59 64 64 60 56 53
35 34 35 37 38 37 35 33 33 35 37 39 40 41 43 43 43 42 41 40 39 36 33 32 32 32 34 37 40 40 39 39 43 49 53 57 63 69 69 65 57 51
34 34 35 35 36 34 32 31 31 31 31 31 32 34 37 38 38 37 37 36 36 35 33 33 33 32 32 35 37 39 39 40 44 49 50 54 64 71 70 64 57 52
34 35 35 35 35 34 33 31 30 30 29 28 28 29 32 35 37 36 36 35 35 35 35 36 36 34 34 37 39 40 41 42 45 48 49 52 60 65 64 58 52 49
35 36 35 35 37 39 39 36 34 33 31 30 28 27 27 31 35 37 36 36 35 35 35 36 37 37 37 39 40 42 43 42 43 48 51 54 59 61 58 53 49 47
36 35 35 35 37 39 39 40 40 40 37 34 31 30 28 30 34 37 37 36 37 37 37 38 39 39 40 40 42 45 45 46 47 49 53 57 59 58 54 50 47 45
37 36 34 34 35 36 37 40 42 42 41 38 35 32 31 32 36 38 38 38 39 39 40 41 42 42 42 42 45 48 49 51 53 56 57 58 57 54 51 47 44 41

ECMWFNIL_prec_cthk_021.txt.gz
RH
69 72 71 69 68 60 50 44 39 35 33 29 21 17 15 15 16 15 13 12 12 11 10 11 11 11 11 11 11 11 11 11 11 11 11 11 11 11 11 12 11 11
66 71 72 71 67 57 50 49 43 38 37 33 25 20 17 16 16 15 14 15 14 14 13 13 12 12 12 12 11 12 11 11 11 11 11 11 11 11 11 10 10 10
66 67 68 69 63 51 49 51 47 44 43 37 30 25 21 20 19 17 16 16 16 17 17 17 17 17 17 17 16 17 17 17 17 17 17 17 17 17 17 17 17 17
67 66 67 69 62 51 51 54 52 49 47 41 35 32 29 26 24 23 22 21 22 23 23 24 24 24 24 24 23 23 23 23 23 23 23 23 23 23 23 24 24 24
64 64 66 68 64 57 55 56 57 55 51 46 40 36 35 31 29 29 28 28 29 30 32 33 32 32 31 31 30 30 30 30 29 28 28 28 27 27 27 27 26 26
58 59 62 64 63 59 55 56 62 61 57 53 46 40 37 34 32 32 32 33 34 36 39 40 40 40 38 38 37 36 36 36 35 35 35 34 33 32 32 31 31 30
54 57 64 67 66 61 56 58 66 68 65 63 56 48 43 38 35 35 35 36 37 39 41 41 42 42 42 41 40 39 39 38 39 39 39 39 38 37 36 35 34 34
56 58 66 70 67 64 61 61 67 71 70 68 63 58 55 49 44 43 43 43 43 44 45 46 46 46 47 46 44 43 42 41 41 42 41 41 40 39 39 38 38 37
61 61 64 65 65 67 65 62 66 70 70 70 69 69 68 64 57 54 54 54 54 54 54 55 56 56 56 56 54 51 48 47 46 45 45 44 43 43 41 40 40 41
60 63 62 60 62 65 63 61 63 66 67 71 74 75 75 74 71 67 65 65 65 66 67 67 66 66 65 64 63 61 59 56 55 54 55 54 52 50 48 45 44 44
53 57 57 56 58 61 61 61 61 60 63 70 75 77 79 81 79 75 74 74 74 74 77 77 75 72 71 69 70 70 69 67 66 65 65 66 65 62 58 54 50 48
48 52 55 56 57 59 60 62 63 61 61 64 64 66 72 75 78 80 81 82 81 80 79 78 77 76 75 75 76 77 77 78 76 74 72 72 72 70 67 64 60 54
51 54 58 59 60 60 60 64 67 65 65 63 56 55 61 65 69 74 78 79 81 82 80 77 76 78 79 79 79 78 77 78 79 78 79 80 79 74 70 68 67 61
53 56 61 63 63 62 61 65 66 65 67 65 57 58 62 63 65 70 74 76 78 80 82 81 80 80 80 80 79 77 73 71 72 75 80 84 84 80 75 73 71 67
52 53 57 59 59 59 60 61 60 62 66 65 63 67 69 68 72 77 78 76 76 81 85 86 81 76 75 77 77 76 74 72 73 75 79 83 83 82 79 77 76 73
52 51 50 51 53 57 59 57 57 63 68 66 65 70 73 74 74 76 75 73 73 75 78 78 74 69 69 71 71 70 70 70 71 73 74 78 81 82 79 75 75 76
51 49 47 46 49 55 59 58 59 64 66 62 59 62 70 76 75 73 72 69 67 68 68 67 68 68 66 65 65 66 67 67 68 69 69 70 74 79 79 75 75 75
50 50 50 48 48 53 56 56 56 59 60 61 60 60 64 71 71 67 64 64 66 70 69 65 64 65 64 62 63 64 65 66 66 66 66 67 67 70 71 69 68 67
51 52 52 51 49 50 52 51 52 55 58 60 60 58 58 60 60 58 58 61 65 65 61 57 56 56 54 52 53 54 57 60 61 62 64 64 62 60 60 60 59 57
52 53 53 53 52 49 48 48 47 49 51 52 52 53 52 51 51 50 51 53 54 51 49 49 49 48 45 42 42 43 45 49 52 54 55 55 55 53 51 52 53 52
55 54 54 56 57 56 53 50 47 47 49 50 50 49 48 47 47 48 47 48 49 48 47 46 46 45 43 41 41 40 41 42 43 43 43 44 46 47 46 46 47 47
61 59 57 56 57 58 57 52 50 49 50 51 50 49 47 47 48 49 50 49 50 50 47 46 45 44 43 41 40 40 41 41 41 39 39 39 42 44 45 44 44 45
63 62 59 56 55 56 57 55 54 53 53 52 51 49 48 48 48 50 50 49 48 47 46 45 45 43 41 39 38 38 40 41 40 39 39 39 40 41 42 42 43 45
61 61 61 60 61 61 61 61 59 57 55 53 51 49 47 46 45 45 45 44 43 44 45 44 43 43 41 38 36 38 39 41 41 41 39 38 39 39 41 43 45 46
66 64 64 65 66 66 65 65 62 58 54 50 50 49 46 44 42 40 39 40 40 42 43 41 40 42 40 38 37 39 41 42 42 43 42 41 41 41 43 45 47 47
71 69 68 67 66 65 66 66 64 59 54 51 50 48 46 44 42 39 39 40 39 37 35 34 36 38 38 38 39 39 40 41 42 43 44 44 44 44 45 45 44 43

ECMWFNIL_prec_cthk_024.txt.gz
RH
68 70 64 61 69 74 71 67 58 48 40 35 33 30 25 21 20 20 18 15 14 14 13 12 12 12 12 12 11 11 11 11 11 10 11 11 11 11 11 11 11 10
70 74 69 67 72 75 73 67 55 46 41 36 34 33 28 22 19 17 15 15 15 14 13 13 12 11 11 10 10 10 10 10 10 10 10 9 9 9 9 9 9 9
66 69 66 67 70 70 68 61 48 44 44 40 37 35 32 26 21 19 17 16 16 15 15 14 13 13 12 11 11 12 12 11 11 11 11 11 11 11 12 13 13 13
59 63 62 62 65 65 65 57 48 47 48 46 42 38 36 33 27 24 22 20 19 19 18 19 19 18 19 19 19 19 20 21 21 21 21 21 20 20 20 21 21 21
58 60 60 59 59 62 63 57 54 54 53 51 47 42 40 40 37 33 29 26 25 25 25 25 26 26 27 27 28 28 29 30 31 31 32 32 31 30 29 29 29 29
55 53 53 53 54 58 58 54 54 55 53 52 50 46 45 45 43 41 37 34 31 30 31 31 31 32 33 34 34 35 35 35 36 35 35 36 36 35 35 34 34 33
49 47 50 51 53 57 57 55 55 53 51 54 54 52 50 47 44 43 42 41 36 33 33 34 34 35 36 37 38 39 39 38 38 37 36 36 37 37 36 36 37 36
44 47 53 54 54 58 58 57 56 51 49 55 58 55 50 45 42 42 44 46 43 38 35 35 36 37 39 40 41 42 42 41 40 39 37 37 37 38 39 40 41 41
46 47 52 53 53 57 57 56 56 50 49 55 60 59 54 49 46 46 48 51 50 45 40 41 43 43 45 47 48 49 48 47 45 43 41 40 40 42 44 46 47 46
49 48 48 47 50 55 55 53 53 50 48 53 59 60 59 59 60 58 57 60 60 57 54 54 55 55 55 56 57 59 59 58 57 54 51 48 47 48 50 52 53 53
48 46 46 46 50 54 53 52 54 53 51 54 59 61 60 64 69 69 67 66 66 66 67 68 68 68 67 66 65 65 66 67 67 66 64 61 59 59 58 58 58 57
46 45 47 49 52 53 52 53 56 55 51 52 60 64 63 64 69 69 66 64 64 66 68 71 75 77 77 76 74 72 73 74 75 74 74 73 71 70 70 69 66 63
47 47 49 53 56 56 54 54 54 52 48 48 56 64 64 64 65 65 64 64 65 67 69 71 76 79 80 81 81 79 77 78 79 80 81 80 77 74 74 74 74 71
47 47 47 49 55 58 58 56 54 50 47 47 52 59 62 62 62 63 65 68 70 72 72 71 74 76 79 83 85 83 82 80 81 83 83 81 79 76 74 74 76 75
48 47 46 47 53 58 59 58 54 51 49 49 52 58 62 65 65 64 66 71 76 79 76 75 79 82 82 83 85 85 82 78 75 77 79 76 74 74 75 76 76 74
49 48 48 49 53 57 60 59 55 53 51 50 52 59 65 70 73 72 71 73 78 81 79 77 81 85 85 85 86 85 81 74 69 70 73 72 69 70 73 74 74 74
49 49 49 50 53 56 58 59 59 58 56 54 55 60 67 72 72 72 74 76 80 85 83 78 79 86 87 86 83 80 77 73 67 65 67 67 66 66 69 71 71 72
52 51 51 52 54 57 57 57 59 59 58 58 58 61 68 71 68 69 73 75 80 85 83 77 78 81 81 77 75 74 73 71 67 64 63 64 64 65 66 65 64 63
53 52 54 56 58 59 57 55 54 53 55 56 56 59 66 71 72 75 76 74 76 79 76 72 70 69 68 68 67 65 63 60 59 59 60 61 62 61 60 59 57 55
52 54 58 61 62 62 60 58 54 52 53 55 55 59 67 73 74 73 71 69 70 70 68 64 61 60 60 59 55 51 48 46 45 47 48 48 47 46 46 47 50 51
55 59 62 65 67 67 65 62 58 55 54 55 55 58 64 67 65 62 59 58 59 59 58 56 53 51 51 50 48 45 43 42 41 41 41 40 38 36 35 37 42 46
56 56 59 62 64 63 64 61 60 59 58 57 56 56 56 55 53 51 51 51 52 53 52 50 47 48 48 47 46 44 42 41 41 41 41 39 38 37 36 37 39 43
58 55 57 60 61 63 65 65 63 62 61 58 56 53 50 48 47 46 47 49 51 52 52 50 48 47 46 44 42 41 41 42 42 43 43 42 39 38 36 35 36 39
60 59 58 61 64 65 68 68 65 62 59 55 52 50 48 48 47 46 47 49 51 52 52 50 48 46 44 43 41 40 39 39 39 40 41 39 38 36 34 32 32 34
65 65 64 64 66 67 68 68 66 62 58 55 54 54 53 52 49 48 48 48 49 50 49 48 47 46 45 44 42 39 37 37 39 39 38 36 35 34 33 32 33 35
75 74 72 70 70 70 69 69 67 64 61 60 60 60 59 58 55 53 52 52 50 50 49 48 47 46 46 45 42 39 39 41 42 43 41 40 38 38 37 37 38 41

ECMWFNIL_prec_cthk_027.txt.gz
RH
50 57 58 52 49 55 60 58 57 61 62 58 50 42 38 36 33 29 23 18 15 15 14 15 15 14 14 14 14 14 13 13 13 12 12 12 11 11 11 11 11 11
54 59 60 57 57 63 68 67 64 63 59 52 46 40 36 33 31 28 23 18 16 15 14 14 14 14 13 12 13 12 12 12 12 12 11 11 11 10 10 9 9 9
53 54 57 57 57 62 66 65 63 61 54 47 42 37 34 33 31 30 26 21 17 16 15 15 14 13 14 14 14 14 13 13 13 13 13 13 13 13 13 13 13 14
53 52 55 56 56 59 61 60 60 57 49 44 42 38 35 34 33 33 31 27 23 21 20 18 17 16 18 18 19 19 19 19 19 19 20 19 20 20 20 20 21 23
51 51 53 56 57 57 57 55 57 58 53 50 50 45 40 36 34 34 35 34 32 29 27 25 23 23 23 24 24 24 24 24 24 24 25 26 25 26 26 26 27 28
48 50 53 55 54 52 50 49 51 55 55 53 53 51 43 37 35 37 39 40 39 37 35 32 30 29 29 29 29 28 28 29 29 29 29 30 30 30 30 30 30 31
43 45 49 50 50 49 48 47 49 52 53 51 52 51 45 40 42 43 44 44 43 41 41 39 36 33 33 32 32 32 32 32 32 32 32 33 33 33 34 33 33 34
39 41 45 46 48 48 49 50 50 51 53 52 49 48 48 47 48 48 46 43 42 42 44 45 42 39 36 36 36 36 36 37 37 36 35 35 35 35 36 36 37 37
39 41 44 47 47 45 47 49 47 46 51 51 46 46 49 51 52 50 48 46 42 42 44 47 47 43 40 39 39 40 41 42 42 41 40 41 40 40 39 40 41 42
43 43 45 47 46 43 44 46 43 41 46 47 45 44 47 48 50 50 49 47 45 44 46 49 50 48 45 44 45 46 47 47 47 47 47 48 48 48 47 46 47 48
49 48 46 46 45 44 45 47 44 42 42 43 42 42 44 49 52 51 49 47 48 51 54 55 55 55 54 54 54 55 56 57 58 57 57 58 60 60 58 56 56 56
56 52 47 46 46 47 49 51 49 46 43 42 41 40 44 51 56 57 56 54 54 58 61 61 58 57 57 60 62 64 65 68 69 69 68 68 69 68 68 67 66 65
60 56 52 47 45 48 53 55 55 52 49 47 44 39 41 49 58 64 65 64 64 65 65 63 59 56 56 59 63 67 70 72 73 75 76 75 74 74 75 76 75 73
56 54 53 48 45 46 50 54 56 55 52 51 48 43 41 45 55 63 66 66 66 66 68 68 66 64 62 63 66 69 72 73 74 77 81 81 78 77 77 79 79 78
52 50 50 49 46 46 48 52 55 55 54 53 52 48 45 45 49 55 60 64 63 62 66 71 71 72 74 75 75 75 76 77 77 78 82 85 82 77 74 74 76 76
50 48 47 46 45 46 48 50 54 56 55 55 53 51 50 49 49 50 54 61 64 62 65 70 72 76 81 83 83 80 79 81 82 83 84 85 81 76 71 72 74 74
48 47 46 45 44 46 48 52 55 57 57 57 55 53 52 52 52 53 54 59 63 67 69 72 74 76 80 82 84 82 80 82 84 85 85 82 78 74 71 70 72 72
47 46 45 44 44 45 49 53 57 58 58 58 57 55 55 57 57 56 55 58 64 72 79 81 81 80 78 79 83 84 83 85 86 85 84 80 77 73 70 68 69 69
48 47 46 45 45 46 50 53 55 57 58 58 59 60 63 65 63 59 58 62 67 73 79 83 85 84 79 79 84 86 84 83 81 78 76 74 70 67 66 67 68 67
47 48 47 47 47 48 51 54 54 56 58 58 59 62 65 69 71 69 67 69 70 73 77 79 80 81 81 82 84 84 80 74 70 67 64 60 57 56 56 57 58 58
48 49 48 48 50 52 54 56 55 56 59 60 61 64 66 71 76 75 70 67 67 70 76 80 80 80 78 76 75 73 68 63 57 53 48 43 42 44 45 43 43 43
51 51 51 52 55 58 58 58 58 58 59 61 62 65 68 73 76 74 70 67 64 64 69 75 77 74 70 66 64 61 56 51 46 41 39 39 41 43 42 40 39 38
53 52 53 56 60 63 64 64 64 64 62 62 63 64 67 71 72 69 66 64 62 58 59 63 63 62 59 57 56 54 51 47 43 41 43 46 47 45 42 39 38 36
55 54 55 60 66 68 67 66 67 67 65 64 65 65 65 66 64 63 62 61 59 57 54 53 53 52 50 50 49 50 51 50 48 47 49 49 48 47 45 42 39 37
55 58 61 66 71 70 66 62 63 65 66 66 65 65 64 64 64 64 62 60 58 56 54 53 52 49 47 46 46 47 51 53 52 51 51 50 50 49 49 47 43 39
47 50 55 61 65 64 62 59 59 64 68 68 66 65 64 65 66 64 62 59 55 53 52 51 51 49 47 45 46 47 48 51 53 53 53 53 52 52 53 51 46 42

ECMWFNIL_prec_cthk_030.txt.gz
RH
46 46 45 41 41 48 51 50 52 52 53 57 59 54 49 44 37 33 32 30 27 25 22 19 15 13 12 13 20 24 21 17 17 15 13 13 15 18 20 21 22 21
48 47 47 45 46 51 51 52 56 58 57 56 51 45 42 40 36 32 31 30 27 25 22 18 15 13 13 13 14 16 14 12 11 11 10 11 10 11 12 12 11 11
53 54 55 52 51 52 51 52 55 57 57 50 40 38 40 39 35 32 30 28 28 27 23 18 16 14 13 13 12 13 12 12 11 10 10 10 10 9 10 10 10 11
61 60 59 54 51 52 52 52 51 52 51 44 37 36 37 36 34 30 29 29 30 30 26 22 19 18 18 17 16 16 15 16 16 15 15 14 14 14 15 16 18 21
61 59 58 54 51 52 52 50 47 47 46 41 39 40 40 39 37 32 29 31 32 31 29 28 27 27 26 24 23 22 22 22 23 23 23 22 22 22 23 26 27 29
56 54 56 58 56 53 50 48 44 42 40 37 39 42 42 42 40 36 34 33 33 33 33 35 35 35 33 30 28 27 28 28 28 29 29 28 29 29 29 31 32 33
51 51 55 58 55 50 47 47 42 40 38 37 38 39 38 40 41 40 36 35 34 36 37 39 40 40 38 35 33 31 31 32 32 34 35 33 32 33 33 34 35 35
48 48 53 55 49 43 44 46 43 40 40 39 38 38 37 39 42 40 36 36 37 39 42 43 43 42 41 40 38 36 34 34 36 39 40 37 36 37 36 36 37 37
45 45 47 48 46 43 43 45 44 42 40 38 37 38 39 39 42 41 39 39 42 44 45 45 44 42 42 42 43 41 39 38 39 41 42 41 41 43 42 41 41 42
48 44 43 44 46 46 45 45 46 43 38 34 34 35 37 38 40 41 42 42 43 46 47 47 46 44 43 44 45 46 45 42 41 42 43 46 48 49 49 48 48 47
54 50 46 44 43 43 45 45 47 45 40 34 31 32 34 36 38 39 40 42 43 45 46 46 46 45 46 48 49 50 50 49 47 47 46 48 51 53 55 56 58 58
59 55 51 48 45 43 43 45 48 49 46 39 34 32 31 32 35 37 38 42 47 49 49 47 46 46 48 52 54 55 55 55 56 56 56 56 58 60 63 64 66 67
61 59 57 56 53 50 46 45 49 53 52 47 41 38 33 30 32 37 40 45 50 53 54 53 52 53 53 55 56 56 57 57 59 61 65 66 67 69 71 71 71 72
61 62 63 61 59 56 52 48 50 54 56 53 48 45 41 35 34 38 42 47 51 54 55 55 56 58 58 59 60 59 57 57 58 60 64 69 72 75 76 77 77 76
55 59 63 61 58 55 52 50 52 54 55 55 52 49 47 44 40 39 41 46 50 54 55 55 54 56 57 59 63 65 65 63 62 62 65 69 74 77 78 79 81 81
53 55 57 58 55 51 47 47 51 53 53 55 54 52 50 49 47 43 42 44 47 50 52 52 53 55 57 58 61 65 69 70 70 71 73 76 78 79 80 81 82 84
52 52 53 54 54 52 50 47 49 51 52 54 55 54 52 52 51 50 48 47 46 46 47 48 49 53 59 62 61 63 68 71 73 75 78 82 84 83 83 84 87 89
50 49 47 47 48 48 48 47 47 49 52 54 55 56 55 54 53 53 54 55 54 52 51 50 50 53 58 62 64 67 71 73 74 76 79 83 85 86 86 89 92 93
46 47 46 46 45 43 42 43 43 46 51 54 55 57 58 58 57 56 57 58 60 61 61 61 60 60 61 62 64 71 77 78 77 78 82 84 86 88 91 91 90 87
43 45 46 46 45 43 42 42 42 44 47 50 53 56 59 61 62 62 60 60 62 66 68 69 67 65 63 61 62 69 76 80 81 83 86 88 87 85 84 81 79 78
45 46 46 46 46 44 44 45 45 44 45 49 53 55 59 63 66 67 65 64 65 64 66 70 70 67 65 64 65 70 75 78 81 83 87 89 86 80 75 71 67 64
51 51 51 49 48 47 47 48 49 49 47 47 52 55 56 59 63 66 68 67 66 63 64 68 70 68 67 67 70 74 76 75 75 78 82 82 77 70 64 59 54 50
51 50 49 47 44 45 47 49 51 52 49 46 49 52 52 53 57 61 63 64 64 63 64 67 70 70 69 68 70 72 71 68 67 69 71 68 61 56 52 49 46 44
48 46 45 43 41 42 45 47 49 51 50 48 50 54 56 57 60 62 62 64 66 65 63 66 71 73 70 68 68 66 62 59 56 56 57 57 55 52 49 46 44 43
47 46 43 41 40 40 41 44 46 48 49 49 52 60 65 65 66 69 71 74 76 73 68 67 69 68 63 60 60 56 51 50 50 50 53 56 56 53 49 46 45 44
44 43 41 40 39 38 37 38 39 42 45 48 54 65 70 68 68 73 74 73 70 67 65 65 64 61 57 54 53 51 49 49 52 53 54 56 55 53 50 49 49 48

ECMWFNIL_prec_cthk_033.txt.gz
RH
48 46 43 42 43 45 46 47 48 48 49 55 60 61 59 52 45 39 35 33 31 25 21 21 24 28 31 32 31 29 28 26 24 23 24 25 26 28 31 32 31 31
51 51 47 46 47 47 47 46 47 50 55 59 58 54 47 39 33 32 32 31 28 23 23 24 26 30 32 30 29 27 22 18 17 17 16 17 16 16 18 20 21 21
53 52 49 50 49 47 46 44 46 53 57 58 54 47 38 32 31 31 31 29 26 25 25 24 25 29 29 26 25 22 17 13 13 13 12 12 13 12 11 12 16 19
55 55 54 55 52 48 47 45 46 52 55 54 50 42 34 30 29 29 29 29 27 26 25 23 26 28 26 25 24 19 15 13 12 11 11 10 10 10 11 12 16 19
60 60 59 57 53 49 47 48 52 54 53 49 43 36 32 31 32 33 33 33 31 28 27 25 25 27 26 27 25 21 18 17 15 14 14 12 12 13 14 16 19 22
65 64 62 56 51 49 48 54 58 54 51 45 37 34 32 30 34 39 38 37 35 33 30 28 27 28 28 27 27 28 29 25 23 22 21 20 20 21 23 26 27 27
66 64 58 51 51 51 51 55 56 52 48 42 37 38 35 32 36 39 38 37 36 34 34 32 31 31 31 33 35 37 36 32 31 31 30 28 28 30 32 34 35 33
63 60 53 50 52 52 49 50 51 49 44 38 39 40 37 35 36 38 40 40 37 36 37 36 35 36 39 43 42 40 38 38 40 39 35 32 33 35 36 35 37 38
61 59 53 50 50 47 47 50 52 51 44 37 38 38 37 38 37 37 40 41 41 40 39 40 42 43 46 46 43 39 38 41 44 44 41 38 39 40 38 36 38 40
61 56 52 51 48 46 49 53 53 53 46 40 39 37 36 38 37 36 38 39 42 44 43 45 45 45 48 48 44 42 40 39 41 42 41 43 44 43 42 42 42 43
55 54 53 53 50 47 50 53 53 54 50 46 43 38 36 36 35 36 37 38 40 44 46 48 47 46 49 49 45 43 41 40 40 42 44 47 49 48 47 48 48 49
56 56 55 55 53 52 54 53 53 54 53 49 47 42 39 38 36 35 37 38 40 43 45 48 49 49 50 50 47 44 43 43 44 45 46 50 52 51 52 54 56 57
61 59 57 56 56 57 59 58 56 57 56 53 50 48 46 43 40 37 36 37 38 41 44 46 47 48 49 50 50 48 47 47 47 47 47 50 53 53 55 58 61 64
64 62 60 59 60 62 63 61 59 61 62 59 56 54 52 49 46 43 39 37 37 40 44 45 47 47 47 49 50 52 53 52 50 49 49 50 52 53 57 59 61 64
68 66 62 62 67 72 71 66 63 64 67 66 63 60 57 54 52 50 48 44 42 43 46 48 50 51 51 52 51 53 56 56 55 55 56 56 55 56 59 60 62 65
67 63 58 59 64 69 70 67 65 65 65 67 68 65 62 58 56 56 55 51 48 47 46 48 51 53 55 56 54 54 57 60 59 58 59 61 60 60 62 62 65 70
59 55 52 52 54 56 57 57 60 62 61 62 64 65 65 62 59 59 58 54 52 51 49 49 50 49 52 55 55 55 56 57 57 56 58 61 60 59 60 60 65 73
56 55 54 52 51 52 51 50 52 55 57 57 58 61 64 65 63 61 61 60 58 57 57 56 54 52 53 55 56 56 55 55 56 56 59 61 59 57 56 59 65 73
54 55 56 54 51 50 50 49 49 51 51 51 52 53 57 60 61 61 61 61 60 58 59 60 59 60 63 63 62 60 59 60 60 60 61 61 62 61 60 62 68 73
46 48 51 51 48 46 46 47 48 49 47 46 46 47 48 52 56 58 58 58 56 55 57 58 58 60 64 66 67 67 66 65 64 62 61 61 63 63 64 69 73 74
44 45 46 47 46 46 46 47 48 49 49 48 46 45 44 45 47 50 53 57 59 60 61 61 60 61 64 66 69 72 74 72 69 64 61 61 61 60 65 72 74 75
50 49 49 48 47 47 49 50 52 54 55 55 52 49 49 48 47 45 46 52 60 66 66 66 65 66 67 68 70 72 73 72 70 66 61 62 63 64 67 71 72 74
54 53 52 52 50 48 49 51 55 57 58 58 57 55 54 53 52 49 47 47 52 56 58 58 60 64 66 67 68 69 68 68 69 66 63 64 68 70 72 74 72 67
59 59 58 57 55 53 51 52 54 55 54 54 55 54 52 50 49 50 52 54 53 53 52 52 53 58 63 66 66 66 66 68 68 66 67 69 71 73 76 73 62 50
63 63 62 60 59 57 56 55 54 53 52 52 53 53 52 51 50 51 55 58 58 56 56 55 55 58 63 66 67 67 66 67 67 67 69 71 72 75 75 64 49 40
59 58 57 58 57 55 53 51 49 48 47 47 47 47 48 49 50 52 54 56 58 57 57 60 63 65 69 71 69 68 68 69 69 70 70 70 70 72 69 56 41 36